Regional Weather Roundup
Issued by NWS

Home | Current Version | Previous Version | Text Only | Print | Product List | Glossary Off
Versions: 1 2 3 4 5 6 7 8 9 10 11 12 13 14 15 16 17 18 19 20 21 22 23 24 25 26 27

000
ASUS45 KTFX 290310
RWRMT
MONTANA REGIONAL WEATHER ROUNDUP
NATIONAL WEATHER SERVICE GREAT FALLS MT
900 PM MDT THU JUL 28 2016

NOTE: "FAIR" INDICATES FEW OR NO CLOUDS BELOW 12000 FEET WITH NO
SIGNIFICANT WEATHER AND/OR OBSTRUCTIONS TO VISIBILITY.

MTZ001>007-043-290400-
WEST OF THE DIVIDE

CITY           SKY/WX    TMP DP  RH WIND       PRES   REMARKS
KALISPELL      CLEAR     78  55  44 VRB6      30.02S
MISSOULA       CLEAR     84  46  26 N9        30.03S
BUTTE          CLEAR     77  40  26 N8        30.18R
MULLAN PASS    CLEAR     68  42  38 NW5       30.25S
ANACONDA         N/A     73  45  35 NE3       30.13F
DEER LODGE       N/A     72  43  35 W8        30.14S
EUREKA           N/A     86  50  28 CALM      30.01S
HAMILTON         N/A     81  52  36 CALM      30.05S
LIBBY            N/A     86  48  26 W5        30.01S
PLAINS           N/A     86  48  26 W2        30.00S
RONAN            N/A     77  54  44 N3        30.08S
THOMPSON FALLS   N/A     84  46  26 W1        30.03F
$$

MTZ008-052>055-290400-
SOUTHWEST MONTANA

CITY           SKY/WX    TMP DP  RH WIND       PRES   REMARKS
BOZEMAN        CLEAR     71  53  52 SE9       30.10S
DILLON         CLEAR     72  45  37 NE9       30.11S
W YELLOWSTONE  CLEAR     68  32  26 W3        30.24S
ENNIS          CLEAR     72  41  33 NE8       30.18S
THREE FORKS      N/A     81 -13   2 CALM      30.08R
TWIN BRIDGES     N/A     80  41  25 N5        30.09S
$$

MTZ009-010-012-014-046-048-049-054-290400-
EAST SLOPES AND CENTRAL MONTANA

CITY           SKY/WX    TMP DP  RH WIND       PRES   REMARKS
CUT BANK         N/A     64  57  78 N13       30.11F
GREAT FALLS    CLEAR     77  45  32 E8        30.07S
MALMSTROM AFB  CLEAR     73  46  38 E6        30.07
HELENA         CLEAR     81  47  30 NE3       30.05S
CHOTEAU          N/A     73  46  38 E8        30.11R
CONRAD           N/A     71  56  59 NE7       30.10S
$$

MTZ011-013-016-021-045-047-050-051-290400-
NORTH CENTRAL MONTANA

CITY           SKY/WX    TMP DP  RH WIND       PRES   REMARKS
HAVRE          CLEAR     73  56  54 E10       30.06S
N BAR RANCH      N/A     68  52  56 CALM      30.20R
CHINOOK          N/A     73  57  56 E8        30.07S
$$

MTZ017>020-022>027-061-062-290400-
NORTHEAST MONTANA

CITY           SKY/WX    TMP DP  RH WIND       PRES   REMARKS
GLASGOW        CLEAR     69  57  65 E8        30.10R
JORDAN           N/A     69  58  67 NE7       30.11S
SIDNEY         CLEAR     67  58  72 E6        30.12R
WOLF POINT     CLEAR     72  53  51 E3        30.11R
PLENTYWOOD       N/A     68  54  60 E5        30.13R
SCOBEY           N/A     65  48  53 NE1       30.12R
$$

MTZ028>42-056>058-290400-
SOUTHCENTRAL AND SOUTHEAST MONTANA

CITY           SKY/WX    TMP DP  RH WIND       PRES   REMARKS
BAKER          CLEAR     64  61  90 E7        30.15R
BILLINGS       PTCLDY    74  50  42 NE7       30.13R
LIVINGSTON     CLEAR     71  50  47 E12       30.15R
MILES CITY     CLEAR     72  55  55 NE8       30.10R
EKALAKA          N/A     64  58  81 E3        30.12R
FORSYTH          N/A     75  52  43 NE3       30.09S
LAUREL           N/A     72  53  51 CALM      30.11S
ROUNDUP          N/A     71  50  47 CALM      30.04R
$$

REGIONAL REPORTS...DAKOTAS

CITY           SKY/WX    TMP DP  RH WIND       PRES   REMARKS
WILLISTON      PTCLDY    68  52  56 CALM      30.13R
MINOT          PTCLDY    67  53  61 N3        30.12R
DICKINSON      CLOUDY    61  57  87 SE6       30.13S
BEACH            N/A     59  59 100 E8        30.18R
CROSBY           N/A     59  59 100 SE7       30.15R
WATFORD CITY     N/A    N/A N/A N/A MISG        N/A
BISMARCK       CLOUDY    71  55  56 N6        30.11S
GRAND FORKS    CLEAR     61  56  83 NW5       30.09R
FARGO          CLEAR     66  59  78 N7        30.08R
BUFFALO SD       N/A     65  62  90 E7        30.09R
RAPID CITY     CLEAR     62  57  83 NE5       30.14R
$$

REGIONAL REPORTS...WYOMING/IDAHO/WASHINGTON

CITY           SKY/WX    TMP DP  RH WIND       PRES   REMARKS
GILLETTE       CLEAR     63  55  75 CALM      30.18S
SHERIDAN       CLEAR     71  53  52 CALM      30.16R
BUFFALO WY     CLEAR     68  51  54 NE8       30.23R
CODY           PTCLDY    70  48  46 N6        30.21S
YELLOWSTONE LA   N/A     61  38  42 VRB3      30.36R
IDAHO FALLS    CLEAR     85  39  19 SE3       30.05S
SALMON         CLEAR     79  46  31 N5        29.99F
BOISE          CLEAR     92  37  14 N7        29.92F
SPOKANE        PTCLDY    91  45  20 NE6       29.99S
$$

REGIONAL REPORTS...ALBERTA

CITY           SKY/WX    TMP DP  RH WIND       PRES   REMARKS
EDMONTON       PTCLDY    61  59  94 E2        30.04S
CALGARY        TSTM      61  55  82 SW7       30.16S
LETHBRIDGE     MOCLDY    66  59  77 NE12G23   30.08R
MEDICINE HAT   MOCLDY    70  59  68 NE13G25   30.04S
WATERTON GATE    N/A     66  55  68 E2          N/A
CARDSTON         N/A     66  54  63 SW2         N/A
MILK RIVER       N/A     64  57  77 SW14G23     N/A
ONEFOUR          N/A     72  46  40 E12         N/A
$$

REGIONAL REPORTS...SASKATCHEWAN

CITY           SKY/WX    TMP DP  RH WIND       PRES   REMARKS
SWIFT CURRENT  CLEAR     66  59  77 SE6       30.08F
REGINA         PTCLDY    64  50  59 SE7       30.09F
SASKATOON      CLOUDY    68  61  77 W5        30.05S
VAL MARIE        N/A     66  57  72 S8          N/A
ROCKGLEN         N/A     66  52  59 SE7         N/A
ASSINIBOIA       N/A     63  59  88 N18G26      N/A
$$




USA.gov is the U.S. government's official web portal to all federal, state and local government web resources and services.